Time,TemperatureF,DewpointF,PressureIn,WindDirection,WindDirectionDegrees,WindSpeedMPH,WindSpeedGustMPH,Humidity,HourlyPrecipIn,Conditions,Clouds,dailyrainin,SoftwareType,DateUTC
2013-01-13 00:04:00,55.5,52.0,30.03,East,82,0.0,0.0,88,0.00,,,0.00,Wunderground v.1.15,2013-01-13 05:04:00,
2013-01-13 00:08:00,55.2,51.4,30.03,East,82,0.0,0.0,87,0.00,,,0.00,Wunderground v.1.15,2013-01-13 05:08:00,
2013-01-13 00:10:00,55.0,51.5,30.03,East,82,0.0,0.0,88,0.00,,,0.00,Wunderground v.1.15,2013-01-13 05:10:00,
2013-01-13 00:12:00,54.9,51.1,30.03,East,82,0.0,0.0,87,0.00,,,0.00,Wunderground v.1.15,2013-01-13 05:12:00,
2013-01-13 00:14:00,54.7,51.2,30.03,East,82,0.0,0.0,88,0.00,,,0.00,Wunderground v.1.15,2013-01-13 05:14:00,
2013-01-13 00:16:00,54.6,51.1,30.03,East,82,0.0,0.0,88,0.00,,,0.00,Wunderground v.1.15,2013-01-13 05:16:00,
2013-01-13 00:20:00,54.5,51.3,30.03,East,82,0.0,0.0,89,0.00,,,0.00,Wunderground v.1.15,2013-01-13 05:20:00,
2013-01-13 00:22:00,54.5,51.3,30.03,East,82,0.0,0.0,89,0.00,,,0.00,Wunderground v.1.15,2013-01-13 05:22:00,
2013-01-13 00:26:00,54.4,51.2,30.03,East,82,0.0,0.0,89,0.00,,,0.00,Wunderground v.1.15,2013-01-13 05:26:00,
2013-01-13 00:28:00,54.3,51.1,30.02,East,82,0.0,0.0,89,0.00,,,0.00,Wunderground v.1.15,2013-01-13 05:28:00,
2013-01-13 00:30:00,54.2,51.0,30.02,East,82,0.0,0.0,89,0.00,,,0.00,Wunderground v.1.15,2013-01-13 05:30:00,
2013-01-13 00:34:00,53.9,50.7,30.03,East,82,0.0,0.0,89,0.00,,,0.00,Wunderground v.1.15,2013-01-13 05:34:00,
2013-01-13 00:38:00,53.7,50.5,30.03,East,82,0.0,0.0,89,0.00,,,0.00,Wunderground v.1.15,2013-01-13 05:38:00,
2013-01-13 00:40:00,53.6,50.4,30.03,East,82,0.0,0.0,89,0.00,,,0.00,Wunderground v.1.15,2013-01-13 05:40:00,
2013-01-13 00:44:00,53.5,50.3,30.03,East,82,0.0,0.0,89,0.00,,,0.00,Wunderground v.1.15,2013-01-13 05:44:00,
2013-01-13 00:46:00,53.4,50.5,30.03,East,82,0.0,0.0,90,0.00,,,0.00,Wunderground v.1.15,2013-01-13 05:46:00,
2013-01-13 00:48:00,53.4,50.5,30.03,East,82,0.0,0.0,90,0.00,,,0.00,Wunderground v.1.15,2013-01-13 05:48:00,
2013-01-13 00:50:00,53.3,50.1,30.03,East,82,0.0,0.0,89,0.00,,,0.00,Wunderground v.1.15,2013-01-13 05:50:00,
2013-01-13 00:54:00,53.0,49.8,30.03,East,82,0.0,0.0,89,0.00,,,0.00,Wunderground v.1.15,2013-01-13 05:54:00,
2013-01-13 00:56:00,52.9,49.7,30.03,East,82,0.0,0.0,89,0.00,,,0.00,Wunderground v.1.15,2013-01-13 05:56:00,
2013-01-13 00:58:00,52.8,49.9,30.03,East,82,0.0,0.0,90,0.00,,,0.00,Wunderground v.1.15,2013-01-13 05:58:00,
2013-01-13 01:00:00,52.7,49.8,30.02,East,84,0.0,0.0,90,0.00,,,0.00,Wunderground v.1.15,2013-01-13 06:00:00,
2013-01-13 01:04:00,52.6,49.8,30.02,East,84,0.0,0.0,90,0.00,,,0.00,Wunderground v.1.15,2013-01-13 06:04:00,
2013-01-13 01:08:00,52.6,50.0,30.02,East,84,0.0,0.0,91,0.00,,,0.00,Wunderground v.1.15,2013-01-13 06:08:00,
2013-01-13 01:10:00,52.5,49.9,30.02,East,84,0.0,0.0,91,0.00,,,0.00,Wunderground v.1.15,2013-01-13 06:10:00,
2013-01-13 01:14:00,52.4,49.8,30.02,East,85,0.0,0.0,91,0.00,,,0.00,Wunderground v.1.15,2013-01-13 06:14:00,
2013-01-13 01:16:00,52.4,49.8,30.03,East,87,0.0,0.0,91,0.00,,,0.00,Wunderground v.1.15,2013-01-13 06:16:00,
2013-01-13 01:18:00,52.4,49.8,30.03,East,87,0.0,0.0,91,0.00,,,0.00,Wunderground v.1.15,2013-01-13 06:18:00,
2013-01-13 01:20:00,52.4,49.8,30.03,East,87,0.0,0.0,91,0.00,,,0.00,Wunderground v.1.15,2013-01-13 06:20:00,
2013-01-13 01:24:00,52.4,50.1,30.03,East,87,0.0,0.0,92,0.00,,,0.00,Wunderground v.1.15,2013-01-13 06:24:00,
2013-01-13 01:28:00,52.3,49.8,30.03,East,87,0.0,0.0,91,0.00,,,0.00,Wunderground v.1.15,2013-01-13 06:28:00,
2013-01-13 01:32:00,52.3,49.8,30.02,East,87,0.0,0.0,91,0.00,,,0.00,Wunderground v.1.15,2013-01-13 06:32:00,
2013-01-13 01:34:00,52.2,49.7,30.02,East,87,0.0,0.0,91,0.00,,,0.00,Wunderground v.1.15,2013-01-13 06:34:00,
2013-01-13 01:40:00,51.9,49.4,30.03,East,87,0.0,0.0,91,0.00,,,0.00,Wunderground v.1.15,2013-01-13 06:40:00,
2013-01-13 01:42:00,51.8,49.3,30.03,East,87,0.0,0.0,91,0.00,,,0.00,Wunderground v.1.15,2013-01-13 06:42:00,
2013-01-13 01:46:00,51.5,48.7,30.03,East,87,0.0,0.0,90,0.00,,,0.00,Wunderground v.1.15,2013-01-13 06:46:00,
2013-01-13 01:50:00,51.3,49.1,30.03,ESE,109,0.0,2.0,92,0.00,,,0.00,Wunderground v.1.15,2013-01-13 06:50:00,
2013-01-13 01:52:00,51.3,49.1,30.03,ESE,109,0.0,2.0,92,0.00,,,0.00,Wunderground v.1.15,2013-01-13 06:52:00,
2013-01-13 01:54:00,51.4,49.2,30.02,ESE,109,0.0,2.0,92,0.00,,,0.00,Wunderground v.1.15,2013-01-13 06:54:00,
2013-01-13 01:58:00,51.4,49.2,30.02,ESE,109,0.0,0.0,92,0.00,,,0.00,Wunderground v.1.15,2013-01-13 06:58:00,
2013-01-13 02:00:00,51.3,49.1,30.02,ESE,109,0.0,0.0,92,0.00,,,0.00,Wunderground v.1.15,2013-01-13 07:00:00,
2013-01-13 02:04:00,51.2,48.7,30.02,ESE,109,0.0,0.0,91,0.00,,,0.00,Wunderground v.1.15,2013-01-13 07:04:00,
2013-01-13 02:08:00,50.9,48.4,30.02,ESE,109,0.0,0.0,91,0.00,,,0.00,Wunderground v.1.15,2013-01-13 07:08:00,
2013-01-13 02:10:00,50.7,48.2,30.03,ESE,109,0.0,0.0,91,0.00,,,0.00,Wunderground v.1.15,2013-01-13 07:10:00,
2013-01-13 02:14:00,50.4,47.9,30.03,ESE,109,0.0,0.0,91,0.00,,,0.00,Wunderground v.1.15,2013-01-13 07:14:00,
2013-01-13 02:16:00,50.2,47.7,30.03,ESE,109,0.0,0.0,91,0.00,,,0.00,Wunderground v.1.15,2013-01-13 07:16:00,
2013-01-13 02:18:00,50.2,48.0,30.03,ESE,109,0.0,0.0,92,0.00,,,0.00,Wunderground v.1.15,2013-01-13 07:18:00,
2013-01-13 02:22:00,50.0,47.5,30.04,ESE,109,0.0,0.0,91,0.00,,,0.00,Wunderground v.1.15,2013-01-13 07:22:00,
2013-01-13 02:28:00,49.8,47.9,30.04,ESE,109,0.0,0.0,93,0.00,,,0.00,Wunderground v.1.15,2013-01-13 07:28:00,
2013-01-13 02:30:00,49.9,48.0,30.03,ESE,109,0.0,0.0,93,0.00,,,0.00,Wunderground v.1.15,2013-01-13 07:30:00,
2013-01-13 02:34:00,50.0,48.1,30.03,ESE,109,0.0,0.0,93,0.00,,,0.00,Wunderground v.1.15,2013-01-13 07:34:00,
2013-01-13 02:36:00,50.0,47.8,30.03,ESE,109,0.0,0.0,92,0.00,,,0.00,Wunderground v.1.15,2013-01-13 07:36:00,
2013-01-13 02:40:00,49.8,47.6,30.03,ESE,109,0.0,0.0,92,0.00,,,0.00,Wunderground v.1.15,2013-01-13 07:40:00,
2013-01-13 02:42:00,49.6,47.4,30.03,ESE,109,0.0,0.0,92,0.00,,,0.00,Wunderground v.1.15,2013-01-13 07:42:00,
2013-01-13 02:44:00,49.5,47.3,30.03,ESE,109,0.0,0.0,92,0.00,,,0.00,Wunderground v.1.15,2013-01-13 07:44:00,
2013-01-13 02:46:00,49.4,47.2,30.03,ESE,109,0.0,0.0,92,0.00,,,0.00,Wunderground v.1.15,2013-01-13 07:46:00,
2013-01-13 02:48:00,49.1,46.6,30.03,ESE,109,0.0,0.0,91,0.00,,,0.00,Wunderground v.1.15,2013-01-13 07:48:00,
2013-01-13 02:50:00,48.9,46.4,30.03,ESE,109,0.0,0.0,91,0.00,,,0.00,Wunderground v.1.15,2013-01-13 07:50:00,
2013-01-13 02:52:00,48.7,46.5,30.03,ESE,109,0.0,0.0,92,0.00,,,0.00,Wunderground v.1.15,2013-01-13 07:52:00,
2013-01-13 02:54:00,48.7,46.5,30.02,ESE,109,0.0,0.0,92,0.00,,,0.00,Wunderground v.1.15,2013-01-13 07:54:00,
2013-01-13 03:00:00,48.4,46.2,30.02,ESE,109,0.0,0.0,92,0.00,,,0.00,Wunderground v.1.15,2013-01-13 08:00:00,
2013-01-13 03:04:00,48.1,45.9,30.02,ESE,109,0.0,0.0,92,0.00,,,0.00,Wunderground v.1.15,2013-01-13 08:04:00,
2013-01-13 03:06:00,48.1,45.9,30.02,ESE,119,0.0,0.0,92,0.00,,,0.00,Wunderground v.1.15,2013-01-13 08:06:00,
2013-01-13 03:08:00,48.2,46.3,30.02,ESE,119,0.0,0.0,93,0.00,,,0.00,Wunderground v.1.15,2013-01-13 08:08:00,
2013-01-13 03:12:00,48.4,46.5,30.01,ESE,119,0.0,0.0,93,0.00,,,0.00,Wunderground v.1.15,2013-01-13 08:12:00,
2013-01-13 03:14:00,48.4,46.5,30.01,ESE,119,0.0,0.0,93,0.00,,,0.00,Wunderground v.1.15,2013-01-13 08:14:00,
2013-01-13 03:18:00,48.3,46.1,30.01,ESE,119,0.0,0.0,92,0.00,,,0.00,Wunderground v.1.15,2013-01-13 08:18:00,
2013-01-13 03:20:00,48.2,46.0,30.01,ESE,119,0.0,0.0,92,0.00,,,0.01,Wunderground v.1.15,2013-01-13 08:20:00,
2013-01-13 03:24:00,48.1,46.2,30.01,ESE,119,0.0,0.0,93,0.00,,,0.01,Wunderground v.1.15,2013-01-13 08:24:00,
2013-01-13 03:26:00,48.1,46.2,30.01,ESE,119,0.0,0.0,93,0.00,,,0.01,Wunderground v.1.15,2013-01-13 08:26:00,
2013-01-13 03:32:00,47.9,46.0,30.01,ESE,120,0.0,0.0,93,0.00,,,0.01,Wunderground v.1.15,2013-01-13 08:32:00,
2013-01-13 03:36:00,48.0,46.1,30.01,ESE,120,0.0,0.0,93,0.00,,,0.01,Wunderground v.1.15,2013-01-13 08:36:00,
2013-01-13 03:38:00,48.1,46.2,30.01,SE,128,0.0,5.0,93,0.00,,,0.01,Wunderground v.1.15,2013-01-13 08:38:00,
2013-01-13 03:40:00,48.4,46.8,30.01,SE,128,1.0,5.0,94,0.00,,,0.01,Wunderground v.1.15,2013-01-13 08:40:00,
2013-01-13 03:44:00,48.9,47.2,30.01,SE,128,1.0,5.0,94,0.00,,,0.01,Wunderground v.1.15,2013-01-13 08:44:00,
2013-01-13 03:46:00,48.8,47.2,30.01,ESE,107,1.0,5.0,94,0.00,,,0.01,Wunderground v.1.15,2013-01-13 08:46:00,
2013-01-13 03:48:00,48.5,46.6,30.00,ESE,107,1.0,1.0,93,0.00,,,0.01,Wunderground v.1.15,2013-01-13 08:48:00,
2013-01-13 03:50:00,48.3,46.4,30.00,ESE,121,0.0,1.0,93,0.00,,,0.01,Wunderground v.1.15,2013-01-13 08:50:00,
2013-01-13 03:54:00,48.1,46.2,30.00,ESE,121,0.0,1.0,93,0.00,,,0.01,Wunderground v.1.15,2013-01-13 08:54:00,
2013-01-13 03:56:00,48.0,46.1,30.00,ESE,123,0.0,1.0,93,0.00,,,0.01,Wunderground v.1.15,2013-01-13 08:56:00,
2013-01-13 03:58:00,48.0,46.1,30.00,ESE,123,0.0,0.0,93,0.00,,,0.01,Wunderground v.1.15,2013-01-13 08:58:00,
2013-01-13 04:02:00,47.9,46.0,30.00,ESE,116,0.0,0.0,93,0.00,,,0.01,Wunderground v.1.15,2013-01-13 09:02:00,
2013-01-13 04:04:00,48.0,46.1,30.00,East,101,0.0,2.0,93,0.00,,,0.01,Wunderground v.1.15,2013-01-13 09:04:00,
2013-01-13 04:06:00,48.0,46.1,30.00,ESE,108,0.0,2.0,93,0.00,,,0.01,Wunderground v.1.15,2013-01-13 09:06:00,
2013-01-13 04:08:00,48.1,46.5,30.00,ESE,107,0.0,2.0,94,0.00,,,0.01,Wunderground v.1.15,2013-01-13 09:08:00,
2013-01-13 04:10:00,48.3,46.7,30.00,South,180,1.0,2.0,94,0.00,,,0.01,Wunderground v.1.15,2013-01-13 09:10:00,
2013-01-13 04:14:00,48.5,46.9,29.99,SSE,158,1.0,2.0,94,0.00,,,0.01,Wunderground v.1.15,2013-01-13 09:14:00,
2013-01-13 04:16:00,48.5,46.9,29.99,SSE,158,0.0,2.0,94,0.00,,,0.01,Wunderground v.1.15,2013-01-13 09:16:00,
2013-01-13 04:20:00,48.3,46.4,29.99,SSE,158,0.0,0.0,93,0.00,,,0.01,Wunderground v.1.15,2013-01-13 09:20:00,
2013-01-13 04:22:00,48.2,46.3,29.99,SSE,158,0.0,0.0,93,0.00,,,0.01,Wunderground v.1.15,2013-01-13 09:22:00,
2013-01-13 04:24:00,48.1,46.2,29.99,SSE,158,0.0,0.0,93,0.00,,,0.01,Wunderground v.1.15,2013-01-13 09:24:00,
2013-01-13 04:28:00,48.1,46.2,29.99,SSE,158,0.0,0.0,93,0.00,,,0.01,Wunderground v.1.15,2013-01-13 09:28:00,
2013-01-13 04:32:00,48.1,46.2,29.99,SSE,158,0.0,0.0,93,0.00,,,0.01,Wunderground v.1.15,2013-01-13 09:32:00,
2013-01-13 04:34:00,48.1,46.2,29.99,SSE,158,0.0,0.0,93,0.00,,,0.01,Wunderground v.1.15,2013-01-13 09:34:00,
2013-01-13 04:38:00,48.1,46.2,29.99,SSE,158,0.0,0.0,93,0.00,,,0.01,Wunderground v.1.15,2013-01-13 09:38:00,
2013-01-13 04:40:00,48.1,46.2,29.99,SSE,158,0.0,0.0,93,0.00,,,0.01,Wunderground v.1.15,2013-01-13 09:40:00,
2013-01-13 04:46:00,47.7,45.8,29.99,SSE,158,0.0,0.0,93,0.00,,,0.01,Wunderground v.1.15,2013-01-13 09:46:00,
2013-01-13 04:48:00,47.6,45.7,29.99,SSE,158,0.0,0.0,93,0.00,,,0.01,Wunderground v.1.15,2013-01-13 09:48:00,
2013-01-13 04:50:00,47.7,45.8,29.99,SSE,158,0.0,0.0,93,0.00,,,0.01,Wunderground v.1.15,2013-01-13 09:50:00,
2013-01-13 04:52:00,47.9,46.3,29.99,SSE,158,0.0,0.0,94,0.00,,,0.01,Wunderground v.1.15,2013-01-13 09:52:00,
2013-01-13 04:54:00,48.2,46.6,29.99,SSE,158,0.0,0.0,94,0.00,,,0.01,Wunderground v.1.15,2013-01-13 09:54:00,
2013-01-13 04:56:00,48.3,46.7,29.99,SSE,158,0.0,0.0,94,0.00,,,0.01,Wunderground v.1.15,2013-01-13 09:56:00,
2013-01-13 04:58:00,48.1,46.2,29.99,SSE,158,0.0,0.0,93,0.00,,,0.01,Wunderground v.1.15,2013-01-13 09:58:00,
2013-01-13 05:00:00,48.2,46.6,29.99,SSE,158,0.0,0.0,94,0.00,,,0.01,Wunderground v.1.15,2013-01-13 10:00:00,
2013-01-13 05:04:00,48.7,47.1,29.99,SSE,157,0.0,0.0,94,0.00,,,0.01,Wunderground v.1.15,2013-01-13 10:04:00,
2013-01-13 05:06:00,48.9,47.5,29.99,SSE,157,0.0,0.0,95,0.00,,,0.01,Wunderground v.1.15,2013-01-13 10:06:00,
2013-01-13 05:10:00,49.1,47.4,29.98,SSE,157,0.0,0.0,94,0.00,,,0.01,Wunderground v.1.15,2013-01-13 10:10:00,
2013-01-13 05:12:00,49.1,47.4,29.98,SSE,157,0.0,0.0,94,0.00,,,0.01,Wunderground v.1.15,2013-01-13 10:12:00,
2013-01-13 05:16:00,49.3,47.6,29.98,SSE,157,0.0,0.0,94,0.00,,,0.01,Wunderground v.1.15,2013-01-13 10:16:00,
2013-01-13 05:18:00,48.9,47.0,29.98,SSE,157,0.0,0.0,93,0.00,,,0.01,Wunderground v.1.15,2013-01-13 10:18:00,
2013-01-13 05:24:00,48.4,46.5,29.98,SSE,157,0.0,0.0,93,0.00,,,0.01,Wunderground v.1.15,2013-01-13 10:24:00,
2013-01-13 05:26:00,48.4,46.5,29.98,SSE,157,0.0,0.0,93,0.00,,,0.01,Wunderground v.1.15,2013-01-13 10:26:00,
2013-01-13 05:28:00,48.5,46.9,29.98,SSE,157,0.0,0.0,94,0.00,,,0.01,Wunderground v.1.15,2013-01-13 10:28:00,
2013-01-13 05:32:00,49.0,47.3,29.98,SSE,153,0.0,2.0,94,0.00,,,0.01,Wunderground v.1.15,2013-01-13 10:32:00,
2013-01-13 05:34:00,49.3,47.6,29.98,SSE,153,0.0,2.0,94,0.00,,,0.01,Wunderground v.1.15,2013-01-13 10:34:00,
2013-01-13 05:38:00,49.2,47.3,29.99,SSE,153,0.0,0.0,93,0.00,,,0.01,Wunderground v.1.15,2013-01-13 10:38:00,
2013-01-13 05:42:00,49.1,47.2,29.99,SSE,153,0.0,0.0,93,0.00,,,0.01,Wunderground v.1.15,2013-01-13 10:42:00,
2013-01-13 05:44:00,49.2,47.5,29.99,SSE,148,0.0,3.0,94,0.00,,,0.01,Wunderground v.1.15,2013-01-13 10:44:00,
2013-01-13 05:48:00,49.5,47.8,29.99,SSE,147,0.0,0.0,94,0.00,,,0.01,Wunderground v.1.15,2013-01-13 10:48:00,
2013-01-13 05:50:00,49.6,47.9,29.99,SSE,147,0.0,0.0,94,0.00,,,0.01,Wunderground v.1.15,2013-01-13 10:50:00,
2013-01-13 05:52:00,49.6,47.9,29.99,SSE,147,0.0,0.0,94,0.00,,,0.01,Wunderground v.1.15,2013-01-13 10:52:00,
2013-01-13 05:54:00,49.3,47.1,29.99,SSE,147,0.0,0.0,92,0.00,,,0.01,Wunderground v.1.15,2013-01-13 10:54:00,
2013-01-13 06:00:00,49.2,47.3,29.99,SSE,147,0.0,0.0,93,0.00,,,0.01,Wunderground v.1.15,2013-01-13 11:00:00,
2013-01-13 06:04:00,49.2,47.3,29.99,SE,146,0.0,0.0,93,0.00,,,0.01,Wunderground v.1.15,2013-01-13 11:04:00,
2013-01-13 06:08:00,49.5,47.6,29.99,SE,141,0.0,0.0,93,0.00,,,0.01,Wunderground v.1.15,2013-01-13 11:08:00,
2013-01-13 06:12:00,49.4,47.5,29.99,SE,141,0.0,0.0,93,0.00,,,0.01,Wunderground v.1.15,2013-01-13 11:12:00,
2013-01-13 06:14:00,49.4,47.5,29.99,SE,141,0.0,0.0,93,0.00,,,0.01,Wunderground v.1.15,2013-01-13 11:14:00,
2013-01-13 06:16:00,49.3,47.4,30.00,SE,141,0.0,0.0,93,0.00,,,0.01,Wunderground v.1.15,2013-01-13 11:16:00,
2013-01-13 06:20:00,49.1,46.9,29.99,SE,141,0.0,0.0,92,0.00,,,0.01,Wunderground v.1.15,2013-01-13 11:20:00,
2013-01-13 06:24:00,48.9,46.7,30.00,SE,141,0.0,0.0,92,0.00,,,0.01,Wunderground v.1.15,2013-01-13 11:24:00,
2013-01-13 06:26:00,48.9,46.7,30.00,SE,141,0.0,0.0,92,0.00,,,0.01,Wunderground v.1.15,2013-01-13 11:26:00,
2013-01-13 06:28:00,48.8,46.6,30.00,SE,141,0.0,0.0,92,0.00,,,0.01,Wunderground v.1.15,2013-01-13 11:28:00,
2013-01-13 06:32:00,49.0,47.1,30.00,SE,142,0.0,0.0,93,0.00,,,0.01,Wunderground v.1.15,2013-01-13 11:32:00,
2013-01-13 06:34:00,49.1,47.2,30.00,SE,141,0.0,0.0,93,0.00,,,0.01,Wunderground v.1.15,2013-01-13 11:34:00,
2013-01-13 06:38:00,49.2,47.3,30.00,SE,141,0.0,0.0,93,0.00,,,0.01,Wunderground v.1.15,2013-01-13 11:38:00,
2013-01-13 06:40:00,49.3,47.4,30.00,SE,142,0.0,0.0,93,0.00,,,0.01,Wunderground v.1.15,2013-01-13 11:40:00,
2013-01-13 06:44:00,49.3,47.4,30.00,SE,142,0.0,0.0,93,0.00,,,0.01,Wunderground v.1.15,2013-01-13 11:44:00,
2013-01-13 06:48:00,48.7,46.2,30.00,SE,142,0.0,0.0,91,0.00,,,0.01,Wunderground v.1.15,2013-01-13 11:48:00,
2013-01-13 06:50:00,48.5,46.0,30.01,SE,142,0.0,0.0,91,0.00,,,0.01,Wunderground v.1.15,2013-01-13 11:50:00,
2013-01-13 06:52:00,48.5,46.3,30.01,SE,142,0.0,0.0,92,0.00,,,0.01,Wunderground v.1.15,2013-01-13 11:52:00,
2013-01-13 06:56:00,48.4,46.2,30.01,SE,142,0.0,0.0,92,0.00,,,0.01,Wunderground v.1.15,2013-01-13 11:56:00,
2013-01-13 06:58:00,48.5,46.6,30.01,SE,141,0.0,0.0,93,0.00,,,0.01,Wunderground v.1.15,2013-01-13 11:58:00,
2013-01-13 07:04:00,48.6,46.7,30.02,SE,142,0.0,0.0,93,0.00,,,0.01,Wunderground v.1.15,2013-01-13 12:04:00,
2013-01-13 07:08:00,48.2,45.7,30.02,SE,142,0.0,0.0,91,0.00,,,0.01,Wunderground v.1.15,2013-01-13 12:08:00,
2013-01-13 07:10:00,47.8,45.3,30.02,SE,142,0.0,0.0,91,0.00,,,0.01,Wunderground v.1.15,2013-01-13 12:10:00,
2013-01-13 07:12:00,47.4,44.6,30.02,SE,142,0.0,0.0,90,0.00,,,0.01,Wunderground v.1.15,2013-01-13 12:12:00,
2013-01-13 07:14:00,47.2,44.7,30.02,SE,142,0.0,0.0,91,0.00,,,0.01,Wunderground v.1.15,2013-01-13 12:14:00,
2013-01-13 07:18:00,47.1,44.9,30.02,SE,142,0.0,0.0,92,0.00,,,0.01,Wunderground v.1.15,2013-01-13 12:18:00,
2013-01-13 07:22:00,46.4,43.9,30.03,SE,142,0.0,0.0,91,0.00,,,0.01,Wunderground v.1.15,2013-01-13 12:22:00,
2013-01-13 07:26:00,46.2,44.0,30.02,SE,142,0.0,0.0,92,0.00,,,0.01,Wunderground v.1.15,2013-01-13 12:26:00,
2013-01-13 07:28:00,46.0,43.8,30.03,SE,142,0.0,0.0,92,0.00,,,0.01,Wunderground v.1.15,2013-01-13 12:28:00,
2013-01-13 07:30:00,45.7,43.2,30.03,SE,142,0.0,0.0,91,0.00,,,0.01,Wunderground v.1.15,2013-01-13 12:30:00,
2013-01-13 07:32:00,45.6,43.1,30.03,SE,142,0.0,0.0,91,0.00,,,0.01,Wunderground v.1.15,2013-01-13 12:32:00,
2013-01-13 07:34:00,45.4,43.2,30.03,SE,142,0.0,0.0,92,0.00,,,0.01,Wunderground v.1.15,2013-01-13 12:34:00,
2013-01-13 07:40:00,45.2,43.0,30.04,SE,142,0.0,0.0,92,0.00,,,0.01,Wunderground v.1.15,2013-01-13 12:40:00,
2013-01-13 07:44:00,45.3,43.4,30.05,SE,142,0.0,0.0,93,0.00,,,0.01,Wunderground v.1.15,2013-01-13 12:44:00,
2013-01-13 07:46:00,45.3,43.4,30.05,SE,142,0.0,0.0,93,0.00,,,0.01,Wunderground v.1.15,2013-01-13 12:46:00,
2013-01-13 07:48:00,45.3,43.4,30.05,SE,142,0.0,0.0,93,0.00,,,0.01,Wunderground v.1.15,2013-01-13 12:48:00,
2013-01-13 07:52:00,45.3,43.4,30.06,SE,142,0.0,0.0,93,0.00,,,0.01,Wunderground v.1.15,2013-01-13 12:52:00,
2013-01-13 07:56:00,45.3,43.4,30.06,SE,142,0.0,0.0,93,0.00,,,0.01,Wunderground v.1.15,2013-01-13 12:56:00,
2013-01-13 07:58:00,45.3,43.4,30.06,SE,142,0.0,0.0,93,0.00,,,0.01,Wunderground v.1.15,2013-01-13 12:58:00,
2013-01-13 08:00:00,45.3,43.4,30.06,SE,142,0.0,0.0,93,0.00,,,0.01,Wunderground v.1.15,2013-01-13 13:00:00,
2013-01-13 08:04:00,45.3,43.4,30.06,SE,142,0.0,0.0,93,0.00,,,0.01,Wunderground v.1.15,2013-01-13 13:04:00,
2013-01-13 08:06:00,45.4,43.5,30.06,SE,142,0.0,0.0,93,0.00,,,0.01,Wunderground v.1.15,2013-01-13 13:06:00,
2013-01-13 08:08:00,45.3,43.4,30.06,SE,142,0.0,0.0,93,0.00,,,0.01,Wunderground v.1.15,2013-01-13 13:08:00,
2013-01-13 08:12:00,45.2,43.3,30.06,SE,142,0.0,0.0,93,0.00,,,0.01,Wunderground v.1.15,2013-01-13 13:12:00,
2013-01-13 08:14:00,45.2,43.3,30.06,SE,142,0.0,0.0,93,0.00,,,0.01,Wunderground v.1.15,2013-01-13 13:14:00,
2013-01-13 08:20:00,45.3,43.4,30.07,SE,142,0.0,0.0,93,0.00,,,0.01,Wunderground v.1.15,2013-01-13 13:20:00,
2013-01-13 08:22:00,45.4,43.8,30.07,SE,142,0.0,0.0,94,0.00,,,0.01,Wunderground v.1.15,2013-01-13 13:22:00,
2013-01-13 08:24:00,45.6,44.0,30.07,SE,142,0.0,0.0,94,0.00,,,0.01,Wunderground v.1.15,2013-01-13 13:24:00,
2013-01-13 08:30:00,45.8,44.2,30.07,SE,142,0.0,0.0,94,0.00,,,0.01,Wunderground v.1.15,2013-01-13 13:30:00,
2013-01-13 08:34:00,45.9,44.3,30.07,SE,142,0.0,0.0,94,0.00,,,0.01,Wunderground v.1.15,2013-01-13 13:34:00,
2013-01-13 08:36:00,46.0,44.4,30.06,SE,142,0.0,0.0,94,0.00,,,0.01,Wunderground v.1.15,2013-01-13 13:36:00,
2013-01-13 08:40:00,46.3,44.7,30.07,SE,142,0.0,0.0,94,0.00,,,0.01,Wunderground v.1.15,2013-01-13 13:40:00,
2013-01-13 08:46:00,46.3,44.7,30.08,SE,142,0.0,0.0,94,0.00,,,0.01,Wunderground v.1.15,2013-01-13 13:46:00,
2013-01-13 08:52:00,46.5,44.9,30.08,SE,142,0.0,0.0,94,0.00,,,0.01,Wunderground v.1.15,2013-01-13 13:52:00,
2013-01-13 08:54:00,46.6,45.0,30.08,SE,142,0.0,0.0,94,0.00,,,0.01,Wunderground v.1.15,2013-01-13 13:54:00,
2013-01-13 08:58:00,46.9,45.3,30.08,SE,142,0.0,0.0,94,0.00,,,0.01,Wunderground v.1.15,2013-01-13 13:58:00,
2013-01-13 09:02:00,47.1,45.5,30.08,SE,142,0.0,0.0,94,0.00,,,0.01,Wunderground v.1.15,2013-01-13 14:02:00,
2013-01-13 09:04:00,47.1,45.5,30.08,SE,142,0.0,0.0,94,0.00,,,0.01,Wunderground v.1.15,2013-01-13 14:04:00,
2013-01-13 09:06:00,47.3,45.7,30.08,SE,142,0.0,0.0,94,0.00,,,0.01,Wunderground v.1.15,2013-01-13 14:06:00,
2013-01-13 09:08:00,47.6,46.2,30.08,SE,142,0.0,0.0,95,0.00,,,0.01,Wunderground v.1.15,2013-01-13 14:08:00,
2013-01-13 09:10:00,47.9,46.5,30.08,SE,142,0.0,0.0,95,0.00,,,0.01,Wunderground v.1.15,2013-01-13 14:10:00,
2013-01-13 09:16:00,48.3,46.9,30.08,SE,142,0.0,0.0,95,0.00,,,0.01,Wunderground v.1.15,2013-01-13 14:16:00,
2013-01-13 09:20:00,48.5,47.1,30.08,SE,141,0.0,0.0,95,0.00,,,0.01,Wunderground v.1.15,2013-01-13 14:20:00,
2013-01-13 09:22:00,48.6,47.2,30.08,SE,142,0.0,0.0,95,0.00,,,0.01,Wunderground v.1.15,2013-01-13 14:22:00,
2013-01-13 09:26:00,48.7,47.1,30.08,SE,142,0.0,0.0,94,0.00,,,0.01,Wunderground v.1.15,2013-01-13 14:26:00,
2013-01-13 09:30:00,48.9,47.5,30.08,SE,142,0.0,0.0,95,0.00,,,0.01,Wunderground v.1.15,2013-01-13 14:30:00,
2013-01-13 09:32:00,49.1,47.7,30.08,SE,142,0.0,0.0,95,0.00,,,0.01,Wunderground v.1.15,2013-01-13 14:32:00,
2013-01-13 09:34:00,49.3,47.9,30.08,SE,142,0.0,0.0,95,0.00,,,0.01,Wunderground v.1.15,2013-01-13 14:34:00,
2013-01-13 09:36:00,49.5,48.1,30.08,SE,142,0.0,0.0,95,0.00,,,0.01,Wunderground v.1.15,2013-01-13 14:36:00,
2013-01-13 09:40:00,50.0,48.6,30.08,SE,142,0.0,0.0,95,0.00,,,0.01,Wunderground v.1.15,2013-01-13 14:40:00,
2013-01-13 09:42:00,50.2,48.8,30.08,SE,142,0.0,0.0,95,0.00,,,0.01,Wunderground v.1.15,2013-01-13 14:42:00,
2013-01-13 09:48:00,51.0,49.6,30.09,SE,142,0.0,0.0,95,0.00,,,0.01,Wunderground v.1.15,2013-01-13 14:48:00,
2013-01-13 09:50:00,51.2,49.8,30.09,SE,142,0.0,0.0,95,0.00,,,0.01,Wunderground v.1.15,2013-01-13 14:50:00,
2013-01-13 09:52:00,51.4,50.0,30.09,SE,142,0.0,0.0,95,0.00,,,0.01,Wunderground v.1.15,2013-01-13 14:52:00,
2013-01-13 09:56:00,51.8,50.4,30.09,SE,142,0.0,0.0,95,0.00,,,0.01,Wunderground v.1.15,2013-01-13 14:56:00,
2013-01-13 09:58:00,52.0,50.6,30.09,SE,142,0.0,0.0,95,0.00,,,0.01,Wunderground v.1.15,2013-01-13 14:58:00,
2013-01-13 10:00:00,52.2,50.8,30.09,SE,142,0.0,0.0,95,0.00,,,0.01,Wunderground v.1.15,2013-01-13 15:00:00,
2013-01-13 10:02:00,52.4,51.0,30.09,SE,142,0.0,0.0,95,0.00,,,0.01,Wunderground v.1.15,2013-01-13 15:02:00,
2013-01-13 10:04:00,52.6,51.2,30.09,SE,142,0.0,0.0,95,0.00,,,0.01,Wunderground v.1.15,2013-01-13 15:04:00,
2013-01-13 10:06:00,52.8,51.4,30.08,SE,142,0.0,0.0,95,0.00,,,0.01,Wunderground v.1.15,2013-01-13 15:06:00,
2013-01-13 10:08:00,53.0,51.6,30.09,SE,142,0.0,0.0,95,0.00,,,0.01,Wunderground v.1.15,2013-01-13 15:08:00,
2013-01-13 10:10:00,53.2,51.8,30.09,SE,142,0.0,0.0,95,0.00,,,0.01,Wunderground v.1.15,2013-01-13 15:10:00,
2013-01-13 10:16:00,54.0,52.6,30.09,SE,142,0.0,0.0,95,0.00,,,0.01,Wunderground v.1.15,2013-01-13 15:16:00,
2013-01-13 10:18:00,54.3,52.9,30.09,SE,142,0.0,0.0,95,0.00,,,0.01,Wunderground v.1.15,2013-01-13 15:18:00,
2013-01-13 10:20:00,54.7,53.3,30.08,SE,142,0.0,0.0,95,0.00,,,0.01,Wunderground v.1.15,2013-01-13 15:20:00,
2013-01-13 10:24:00,55.2,53.8,30.08,SE,142,0.0,0.0,95,0.00,,,0.01,Wunderground v.1.15,2013-01-13 15:24:00,
2013-01-13 10:28:00,55.7,54.3,30.08,SE,142,0.0,0.0,95,0.00,,,0.01,Wunderground v.1.15,2013-01-13 15:28:00,
2013-01-13 10:32:00,56.1,54.4,30.08,SE,142,0.0,0.0,94,0.00,,,0.01,Wunderground v.1.15,2013-01-13 15:32:00,
2013-01-13 10:36:00,56.5,54.5,30.08,SE,142,0.0,0.0,93,0.00,,,0.01,Wunderground v.1.15,2013-01-13 15:36:00,
2013-01-13 10:38:00,56.7,54.7,30.09,SE,142,0.0,0.0,93,0.00,,,0.01,Wunderground v.1.15,2013-01-13 15:38:00,
2013-01-13 10:40:00,57.0,54.7,30.09,SE,142,0.0,0.0,92,0.00,,,0.01,Wunderground v.1.15,2013-01-13 15:40:00,
2013-01-13 10:42:00,57.2,54.6,30.08,SE,142,0.0,0.0,91,0.00,,,0.01,Wunderground v.1.15,2013-01-13 15:42:00,
2013-01-13 10:46:00,57.6,54.7,30.08,SE,142,0.0,1.0,90,0.00,,,0.01,Wunderground v.1.15,2013-01-13 15:46:00,
2013-01-13 10:48:00,57.9,54.4,30.08,SE,142,0.0,0.0,88,0.00,,,0.01,Wunderground v.1.15,2013-01-13 15:48:00,
2013-01-13 10:50:00,58.0,54.2,30.08,SSE,160,0.0,3.0,87,0.00,,,0.01,Wunderground v.1.15,2013-01-13 15:50:00,
2013-01-13 10:54:00,58.5,53.7,30.08,SSE,160,0.0,3.0,84,0.00,,,0.01,Wunderground v.1.15,2013-01-13 15:54:00,
2013-01-13 10:56:00,58.7,53.5,30.08,WSW,240,0.0,3.0,83,0.00,,,0.01,Wunderground v.1.15,2013-01-13 15:56:00,
2013-01-13 11:00:00,59.3,54.1,30.07,WSW,238,1.0,1.0,83,0.00,,,0.01,Wunderground v.1.15,2013-01-13 16:00:00,
2013-01-13 11:04:00,59.8,53.6,30.07,SW,236,0.0,1.0,80,0.00,,,0.01,Wunderground v.1.15,2013-01-13 16:04:00,
2013-01-13 11:08:00,60.4,53.9,30.06,ESE,122,0.0,0.0,79,0.00,,,0.01,Wunderground v.1.15,2013-01-13 16:08:00,
2013-01-13 11:14:00,60.6,53.7,30.05,ESE,118,0.0,1.0,78,0.00,,,0.01,Wunderground v.1.15,2013-01-13 16:14:00,
2013-01-13 11:16:00,60.8,53.5,30.05,ESE,118,0.0,1.0,77,0.00,,,0.01,Wunderground v.1.15,2013-01-13 16:16:00,
2013-01-13 11:18:00,60.9,53.6,30.06,ESE,118,0.0,0.0,77,0.00,,,0.01,Wunderground v.1.15,2013-01-13 16:18:00,
2013-01-13 11:22:00,61.1,53.5,30.05,ESE,118,0.0,0.0,76,0.00,,,0.01,Wunderground v.1.15,2013-01-13 16:22:00,
2013-01-13 11:24:00,61.2,53.6,30.05,ESE,118,0.0,0.0,76,0.00,,,0.01,Wunderground v.1.15,2013-01-13 16:24:00,
2013-01-13 11:28:00,61.4,53.4,30.04,ESE,118,0.0,0.0,75,0.00,,,0.01,Wunderground v.1.15,2013-01-13 16:28:00,
2013-01-13 11:32:00,61.5,53.5,30.04,ESE,118,0.0,0.0,75,0.00,,,0.01,Wunderground v.1.15,2013-01-13 16:32:00,
2013-01-13 11:34:00,61.6,53.2,30.03,ESE,118,0.0,0.0,74,0.00,,,0.01,Wunderground v.1.15,2013-01-13 16:34:00,
2013-01-13 11:36:00,61.6,53.6,30.03,ESE,118,0.0,0.0,75,0.00,,,0.01,Wunderground v.1.15,2013-01-13 16:36:00,
2013-01-13 11:42:00,61.8,53.4,30.03,ESE,118,0.0,0.0,74,0.00,,,0.01,Wunderground v.1.15,2013-01-13 16:42:00,
2013-01-13 11:44:00,61.9,53.5,30.03,ESE,118,0.0,0.0,74,0.00,,,0.01,Wunderground v.1.15,2013-01-13 16:44:00,
2013-01-13 11:48:00,62.2,54.2,30.02,ESE,118,0.0,0.0,75,0.00,,,0.01,Wunderground v.1.15,2013-01-13 16:48:00,
2013-01-13 11:50:00,62.4,54.0,30.02,ESE,118,0.0,0.0,74,0.00,,,0.01,Wunderground v.1.15,2013-01-13 16:50:00,
2013-01-13 11:56:00,62.6,53.4,30.01,ESE,118,0.0,0.0,72,0.00,,,0.01,Wunderground v.1.15,2013-01-13 16:56:00,
2013-01-13 11:58:00,62.7,53.5,30.01,ESE,118,0.0,0.0,72,0.00,,,0.01,Wunderground v.1.15,2013-01-13 16:58:00,
2013-01-13 12:00:00,62.8,54.0,30.01,ESE,118,0.0,0.0,73,0.00,,,0.01,Wunderground v.1.15,2013-01-13 17:00:00,
2013-01-13 12:02:00,62.8,54.0,30.01,ESE,118,0.0,0.0,73,0.00,,,0.01,Wunderground v.1.15,2013-01-13 17:02:00,
2013-01-13 12:04:00,62.9,54.1,30.01,ESE,118,0.0,0.0,73,0.00,,,0.01,Wunderground v.1.15,2013-01-13 17:04:00,
2013-01-13 12:06:00,62.9,54.5,30.01,ESE,118,0.0,0.0,74,0.00,,,0.01,Wunderground v.1.15,2013-01-13 17:06:00,
2013-01-13 12:10:00,63.1,54.3,30.01,ESE,118,0.0,0.0,73,0.00,,,0.01,Wunderground v.1.15,2013-01-13 17:10:00,
2013-01-13 12:12:00,63.1,53.9,30.01,ESE,118,0.0,0.0,72,0.00,,,0.01,Wunderground v.1.15,2013-01-13 17:12:00,
2013-01-13 12:14:00,63.2,54.0,30.01,ESE,118,0.0,0.0,72,0.00,,,0.01,Wunderground v.1.15,2013-01-13 17:14:00,
2013-01-13 12:16:00,63.2,54.0,30.01,ESE,118,0.0,0.0,72,0.00,,,0.01,Wunderground v.1.15,2013-01-13 17:16:00,
2013-01-13 12:18:00,63.3,54.1,30.01,ESE,118,0.0,0.0,72,0.00,,,0.01,Wunderground v.1.15,2013-01-13 17:18:00,
2013-01-13 12:20:00,63.4,54.2,30.01,ESE,118,0.0,0.0,72,0.00,,,0.01,Wunderground v.1.15,2013-01-13 17:20:00,
2013-01-13 12:22:00,63.5,53.9,30.01,ESE,118,0.0,0.0,71,0.00,,,0.01,Wunderground v.1.15,2013-01-13 17:22:00,
2013-01-13 12:26:00,63.7,53.7,30.01,ESE,118,0.0,1.0,70,0.00,,,0.01,Wunderground v.1.15,2013-01-13 17:26:00,
2013-01-13 12:28:00,63.9,53.9,30.01,ESE,118,0.0,0.0,70,0.00,,,0.01,Wunderground v.1.15,2013-01-13 17:28:00,
2013-01-13 12:32:00,64.2,53.8,30.01,ESE,118,0.0,0.0,69,0.00,,,0.01,Wunderground v.1.15,2013-01-13 17:32:00,
2013-01-13 12:34:00,64.4,54.0,30.00,ESE,119,0.0,0.0,69,0.00,,,0.01,Wunderground v.1.15,2013-01-13 17:34:00,
2013-01-13 12:36:00,64.7,54.3,30.00,ESE,119,0.0,0.0,69,0.00,,,0.01,Wunderground v.1.15,2013-01-13 17:36:00,
2013-01-13 12:42:00,65.1,54.3,30.00,ESE,119,0.0,0.0,68,0.00,,,0.01,Wunderground v.1.15,2013-01-13 17:42:00,
2013-01-13 12:44:00,65.3,54.9,30.00,ESE,119,0.0,0.0,69,0.00,,,0.01,Wunderground v.1.15,2013-01-13 17:44:00,
2013-01-13 12:46:00,65.4,54.6,30.00,ESE,119,0.0,0.0,68,0.00,,,0.01,Wunderground v.1.15,2013-01-13 17:46:00,
2013-01-13 12:50:00,65.8,54.9,30.00,ESE,115,0.0,0.0,68,0.00,,,0.01,Wunderground v.1.15,2013-01-13 17:50:00,
2013-01-13 12:52:00,66.0,54.3,29.99,ENE,78,0.0,0.0,66,0.00,,,0.01,Wunderground v.1.15,2013-01-13 17:52:00,
2013-01-13 12:56:00,66.3,54.2,29.99,ENE,78,0.0,1.0,65,0.00,,,0.01,Wunderground v.1.15,2013-01-13 17:56:00,
2013-01-13 12:58:00,66.5,54.4,29.99,NW,315,0.0,2.0,65,0.00,,,0.01,Wunderground v.1.15,2013-01-13 17:58:00,
2013-01-13 13:04:00,66.9,54.3,29.99,NW,304,0.0,2.0,64,0.00,,,0.01,Wunderground v.1.15,2013-01-13 18:04:00,
2013-01-13 13:06:00,67.1,54.5,29.99,NW,304,0.0,2.0,64,0.00,,,0.01,Wunderground v.1.15,2013-01-13 18:06:00,
2013-01-13 13:12:00,67.3,54.3,29.99,WNW,290,1.0,2.0,63,0.00,,,0.01,Wunderground v.1.15,2013-01-13 18:12:00,
2013-01-13 13:14:00,67.4,54.4,29.99,WSW,250,1.0,2.0,63,0.00,,,0.01,Wunderground v.1.15,2013-01-13 18:14:00,
2013-01-13 13:18:00,67.7,54.6,29.98,WNW,300,1.0,1.0,63,0.00,,,0.01,Wunderground v.1.15,2013-01-13 18:18:00,
2013-01-13 13:20:00,67.9,54.0,29.98,WNW,302,1.0,2.0,61,0.00,,,0.01,Wunderground v.1.15,2013-01-13 18:20:00,
2013-01-13 13:22:00,68.0,54.5,29.98,SW,235,1.0,2.0,62,0.00,,,0.01,Wunderground v.1.15,2013-01-13 18:22:00,
2013-01-13 13:26:00,68.0,54.5,29.98,WSW,248,1.0,2.0,62,0.00,,,0.01,Wunderground v.1.15,2013-01-13 18:26:00,
2013-01-13 13:30:00,68.1,54.6,29.98,West,260,0.0,1.0,62,0.00,,,0.01,Wunderground v.1.15,2013-01-13 18:30:00,
2013-01-13 13:32:00,68.2,54.2,29.98,West,266,0.0,1.0,61,0.00,,,0.01,Wunderground v.1.15,2013-01-13 18:32:00,
2013-01-13 13:36:00,68.2,54.2,29.98,WNW,286,0.0,1.0,61,0.00,,,0.01,Wunderground v.1.15,2013-01-13 18:36:00,
2013-01-13 13:38:00,68.2,54.2,29.98,WNW,286,0.0,1.0,61,0.00,,,0.01,Wunderground v.1.15,2013-01-13 18:38:00,
2013-01-13 13:40:00,68.3,54.3,29.98,West,260,0.0,1.0,61,0.00,,,0.01,Wunderground v.1.15,2013-01-13 18:40:00,
2013-01-13 13:46:00,68.3,54.8,29.98,WNW,285,0.0,1.0,62,0.00,,,0.01,Wunderground v.1.15,2013-01-13 18:46:00,
2013-01-13 13:48:00,68.4,54.4,29.98,WNW,290,0.0,0.0,61,0.00,,,0.01,Wunderground v.1.15,2013-01-13 18:48:00,
2013-01-13 13:52:00,68.6,54.6,29.98,WNW,298,0.0,1.0,61,0.00,,,0.01,Wunderground v.1.15,2013-01-13 18:52:00,
2013-01-13 13:54:00,68.7,54.7,29.97,WNW,298,0.0,1.0,61,0.00,,,0.01,Wunderground v.1.15,2013-01-13 18:54:00,
2013-01-13 14:00:00,69.1,54.6,29.97,WSW,251,1.0,3.0,60,0.00,,,0.01,Wunderground v.1.15,2013-01-13 19:00:00,
2013-01-13 14:02:00,69.3,54.8,29.97,WNW,292,1.0,3.0,60,0.00,,,0.01,Wunderground v.1.15,2013-01-13 19:02:00,
2013-01-13 14:04:00,69.4,54.4,29.97,WNW,302,1.0,3.0,59,0.00,,,0.01,Wunderground v.1.15,2013-01-13 19:04:00,
2013-01-13 14:08:00,69.5,54.5,29.97,WNW,298,1.0,1.0,59,0.00,,,0.01,Wunderground v.1.15,2013-01-13 19:08:00,
2013-01-13 14:10:00,69.6,54.2,29.97,NW,317,1.0,2.0,58,0.00,,,0.01,Wunderground v.1.15,2013-01-13 19:10:00,
2013-01-13 14:12:00,69.6,54.2,29.97,WNW,296,1.0,2.0,58,0.00,,,0.01,Wunderground v.1.15,2013-01-13 19:12:00,
2013-01-13 14:14:00,69.7,55.2,29.97,WNW,296,1.0,2.0,60,0.00,,,0.01,Wunderground v.1.15,2013-01-13 19:14:00,
2013-01-13 14:18:00,69.9,54.4,29.97,NW,313,1.0,1.0,58,0.00,,,0.01,Wunderground v.1.15,2013-01-13 19:18:00,
2013-01-13 14:24:00,69.8,54.4,29.97,WNW,287,1.0,1.0,58,0.00,,,0.01,Wunderground v.1.15,2013-01-13 19:24:00,
2013-01-13 14:26:00,69.8,54.8,29.97,WNW,287,1.0,1.0,59,0.00,,,0.01,Wunderground v.1.15,2013-01-13 19:26:00,
2013-01-13 14:30:00,69.9,55.4,29.96,NW,307,0.0,1.0,60,0.00,,,0.01,Wunderground v.1.15,2013-01-13 19:30:00,
2013-01-13 14:32:00,70.0,55.0,29.97,NW,307,0.0,1.0,59,0.00,,,0.01,Wunderground v.1.15,2013-01-13 19:32:00,
2013-01-13 14:38:00,70.1,55.1,29.97,WNW,299,0.0,2.0,59,0.00,,,0.01,Wunderground v.1.15,2013-01-13 19:38:00,
2013-01-13 14:42:00,70.1,54.6,29.97,WNW,295,0.0,5.0,58,0.00,,,0.01,Wunderground v.1.15,2013-01-13 19:42:00,
2013-01-13 14:44:00,70.0,54.1,29.97,NW,315,1.0,5.0,57,0.00,,,0.01,Wunderground v.1.15,2013-01-13 19:44:00,
2013-01-13 14:48:00,70.0,55.0,29.97,WNW,298,1.0,1.0,59,0.00,,,0.01,Wunderground v.1.15,2013-01-13 19:48:00,
2013-01-13 14:50:00,70.0,55.0,29.97,WNW,299,1.0,1.0,59,0.00,,,0.01,Wunderground v.1.15,2013-01-13 19:50:00,
2013-01-13 14:54:00,70.3,54.8,29.97,WNW,299,0.0,1.0,58,0.00,,,0.01,Wunderground v.1.15,2013-01-13 19:54:00,
2013-01-13 14:56:00,70.4,54.4,29.97,WNW,295,1.0,1.0,57,0.00,,,0.01,Wunderground v.1.15,2013-01-13 19:56:00,
2013-01-13 15:00:00,70.4,54.4,29.97,WNW,292,1.0,1.0,57,0.00,,,0.01,Wunderground v.1.15,2013-01-13 20:00:00,
2013-01-13 15:02:00,70.3,54.3,29.98,WNW,284,1.0,1.0,57,0.00,,,0.01,Wunderground v.1.15,2013-01-13 20:02:00,
2013-01-13 15:04:00,70.4,54.4,29.98,WNW,284,1.0,1.0,57,0.00,,,0.01,Wunderground v.1.15,2013-01-13 20:04:00,
2013-01-13 15:06:00,70.4,54.9,29.98,West,281,0.0,1.0,58,0.00,,,0.01,Wunderground v.1.15,2013-01-13 20:06:00,
2013-01-13 15:10:00,70.3,55.3,29.98,South,186,0.0,2.0,59,0.00,,,0.01,Wunderground v.1.15,2013-01-13 20:10:00,
2013-01-13 15:12:00,70.3,56.2,29.98,South,186,0.0,2.0,61,0.00,,,0.01,Wunderground v.1.15,2013-01-13 20:12:00,
2013-01-13 15:14:00,70.1,56.5,29.98,ESE,114,1.0,2.0,62,0.00,,,0.01,Wunderground v.1.15,2013-01-13 20:14:00,
2013-01-13 15:18:00,69.6,56.4,29.98,East,97,1.0,1.0,63,0.00,,,0.01,Wunderground v.1.15,2013-01-13 20:18:00,
2013-01-13 15:20:00,69.4,56.7,29.98,SE,134,1.0,1.0,64,0.00,,,0.01,Wunderground v.1.15,2013-01-13 20:20:00,
2013-01-13 15:22:00,69.3,56.6,29.98,ESE,121,2.0,2.0,64,0.00,,,0.01,Wunderground v.1.15,2013-01-13 20:22:00,
2013-01-13 15:28:00,68.9,57.1,29.98,SSW,206,1.0,5.0,66,0.00,,,0.01,Wunderground v.1.15,2013-01-13 20:28:00,
2013-01-13 15:30:00,68.7,56.9,29.98,South,188,2.0,5.0,66,0.00,,,0.01,Wunderground v.1.15,2013-01-13 20:30:00,
2013-01-13 15:32:00,68.6,56.8,29.98,SSE,160,1.0,5.0,66,0.00,,,0.01,Wunderground v.1.15,2013-01-13 20:32:00,
2013-01-13 15:34:00,68.5,56.7,29.98,SE,128,1.0,5.0,66,0.00,,,0.01,Wunderground v.1.15,2013-01-13 20:34:00,
2013-01-13 15:36:00,68.4,56.6,29.99,SSE,168,1.0,5.0,66,0.00,,,0.01,Wunderground v.1.15,2013-01-13 20:36:00,
2013-01-13 15:38:00,68.3,56.5,29.99,South,171,1.0,1.0,66,0.00,,,0.01,Wunderground v.1.15,2013-01-13 20:38:00,
2013-01-13 15:40:00,68.2,56.8,29.99,South,172,1.0,4.0,67,0.00,,,0.01,Wunderground v.1.15,2013-01-13 20:40:00,
2013-01-13 15:44:00,68.1,56.3,29.99,ESE,113,2.0,4.0,66,0.00,,,0.01,Wunderground v.1.15,2013-01-13 20:44:00,
2013-01-13 15:46:00,68.0,56.6,29.99,SE,130,2.0,4.0,67,0.00,,,0.01,Wunderground v.1.15,2013-01-13 20:46:00,
2013-01-13 15:50:00,67.9,56.5,29.99,SSE,157,2.0,2.0,67,0.00,,,0.01,Wunderground v.1.15,2013-01-13 20:50:00,
2013-01-13 15:52:00,67.9,56.5,29.99,SSE,152,1.0,2.0,67,0.00,,,0.01,Wunderground v.1.15,2013-01-13 20:52:00,
2013-01-13 15:56:00,67.8,56.4,29.99,SSE,156,1.0,4.0,67,0.00,,,0.01,Wunderground v.1.15,2013-01-13 20:56:00,
2013-01-13 15:58:00,67.9,56.5,29.99,South,185,1.0,1.0,67,0.00,,,0.01,Wunderground v.1.15,2013-01-13 20:58:00,
2013-01-13 16:00:00,67.8,56.9,29.99,South,188,0.0,1.0,68,0.00,,,0.01,Wunderground v.1.15,2013-01-13 21:00:00,
2013-01-13 16:02:00,67.8,56.4,29.99,SE,141,1.0,1.0,67,0.00,,,0.01,Wunderground v.1.15,2013-01-13 21:02:00,
2013-01-13 16:04:00,67.8,56.4,29.99,South,181,1.0,6.0,67,0.00,,,0.01,Wunderground v.1.15,2013-01-13 21:04:00,
2013-01-13 16:08:00,67.6,56.2,29.99,South,188,2.0,2.0,67,0.00,,,0.01,Wunderground v.1.15,2013-01-13 21:08:00,
2013-01-13 16:10:00,67.5,56.2,29.99,East,101,3.0,3.0,67,0.00,,,0.01,Wunderground v.1.15,2013-01-13 21:10:00,
2013-01-13 16:12:00,67.5,56.2,29.99,ESE,112,3.0,3.0,67,0.00,,,0.01,Wunderground v.1.15,2013-01-13 21:12:00,
2013-01-13 16:14:00,67.4,56.1,29.99,SSW,192,3.0,3.0,67,0.00,,,0.01,Wunderground v.1.15,2013-01-13 21:14:00,
2013-01-13 16:20:00,67.3,56.0,29.99,SSE,168,2.0,2.0,67,0.00,,,0.01,Wunderground v.1.15,2013-01-13 21:20:00,
2013-01-13 16:22:00,67.3,56.0,29.99,SE,126,1.0,3.0,67,0.00,,,0.01,Wunderground v.1.15,2013-01-13 21:22:00,
2013-01-13 16:26:00,67.2,55.9,29.99,SSW,192,2.0,3.0,67,0.00,,,0.01,Wunderground v.1.15,2013-01-13 21:26:00,
2013-01-13 16:30:00,67.1,55.8,29.99,SSW,211,1.0,3.0,67,0.00,,,0.01,Wunderground v.1.15,2013-01-13 21:30:00,
2013-01-13 16:34:00,67.1,55.8,29.99,East,84,2.0,4.0,67,0.00,,,0.01,Wunderground v.1.15,2013-01-13 21:34:00,
2013-01-13 16:36:00,67.0,55.7,29.99,SE,126,2.0,4.0,67,0.00,,,0.01,Wunderground v.1.15,2013-01-13 21:36:00,
2013-01-13 16:40:00,66.9,55.6,29.99,SSW,194,2.0,6.0,67,0.00,,,0.01,Wunderground v.1.15,2013-01-13 21:40:00,
2013-01-13 16:42:00,66.9,55.6,29.99,South,186,2.0,6.0,67,0.00,,,0.01,Wunderground v.1.15,2013-01-13 21:42:00,
2013-01-13 16:46:00,66.9,56.0,29.99,SSE,160,2.0,6.0,68,0.00,,,0.01,Wunderground v.1.15,2013-01-13 21:46:00,
2013-01-13 16:48:00,66.9,56.0,29.99,SSW,194,3.0,5.0,68,0.00,,,0.01,Wunderground v.1.15,2013-01-13 21:48:00,
2013-01-13 16:52:00,66.9,56.0,29.99,South,188,3.0,5.0,68,0.00,,,0.01,Wunderground v.1.15,2013-01-13 21:52:00,
2013-01-13 16:56:00,66.8,55.9,29.99,SE,129,3.0,5.0,68,0.00,,,0.01,Wunderground v.1.15,2013-01-13 21:56:00,
2013-01-13 17:00:00,66.7,55.8,29.99,East,92,3.0,3.0,68,0.00,,,0.01,Wunderground v.1.15,2013-01-13 22:00:00,
2013-01-13 17:02:00,66.6,56.1,29.99,ESE,116,3.0,4.0,69,0.00,,,0.01,Wunderground v.1.15,2013-01-13 22:02:00,
2013-01-13 17:04:00,66.6,56.1,29.99,SSE,151,3.0,4.0,69,0.00,,,0.01,Wunderground v.1.15,2013-01-13 22:04:00,
2013-01-13 17:10:00,66.4,55.9,29.98,ESE,119,2.0,3.0,69,0.00,,,0.01,Wunderground v.1.15,2013-01-13 22:10:00,
2013-01-13 17:12:00,66.4,55.9,29.99,SSW,202,2.0,5.0,69,0.00,,,0.01,Wunderground v.1.15,2013-01-13 22:12:00,
2013-01-13 17:14:00,66.3,55.8,29.98,ESE,109,1.0,5.0,69,0.00,,,0.01,Wunderground v.1.15,2013-01-13 22:14:00,
2013-01-13 17:16:00,66.3,55.8,29.99,East,94,1.0,5.0,69,0.00,,,0.01,Wunderground v.1.15,2013-01-13 22:16:00,
2013-01-13 17:22:00,66.2,56.1,29.99,SSW,192,2.0,6.0,70,0.00,,,0.01,Wunderground v.1.15,2013-01-13 22:22:00,
2013-01-13 17:24:00,66.2,56.1,29.99,ESE,122,2.0,6.0,70,0.00,,,0.01,Wunderground v.1.15,2013-01-13 22:24:00,
2013-01-13 17:26:00,66.1,56.0,29.99,ESE,117,2.0,6.0,70,0.00,,,0.01,Wunderground v.1.15,2013-01-13 22:26:00,
2013-01-13 17:28:00,66.1,56.0,29.99,SE,126,2.0,2.0,70,0.00,,,0.01,Wunderground v.1.15,2013-01-13 22:28:00,
2013-01-13 17:32:00,66.1,56.0,29.99,SE,138,2.0,2.0,70,0.00,,,0.01,Wunderground v.1.15,2013-01-13 22:32:00,
2013-01-13 17:34:00,66.0,55.9,29.99,SSW,199,2.0,4.0,70,0.00,,,0.01,Wunderground v.1.15,2013-01-13 22:34:00,
2013-01-13 17:36:00,66.0,55.9,29.99,SSE,157,2.0,10.0,70,0.00,,,0.01,Wunderground v.1.15,2013-01-13 22:36:00,
2013-01-13 17:38:00,66.0,55.9,29.99,ESE,114,3.0,3.0,70,0.00,,,0.01,Wunderground v.1.15,2013-01-13 22:38:00,
2013-01-13 17:42:00,65.9,56.2,29.99,SSW,202,3.0,3.0,71,0.00,,,0.01,Wunderground v.1.15,2013-01-13 22:42:00,
2013-01-13 17:44:00,65.9,56.2,29.99,East,86,3.0,3.0,71,0.00,,,0.01,Wunderground v.1.15,2013-01-13 22:44:00,
2013-01-13 17:50:00,65.9,56.6,29.99,ESE,112,2.0,3.0,72,0.00,,,0.01,Wunderground v.1.15,2013-01-13 22:50:00,
2013-01-13 17:52:00,65.9,56.6,29.99,ESE,111,1.0,3.0,72,0.00,,,0.01,Wunderground v.1.15,2013-01-13 22:52:00,
2013-01-13 17:56:00,65.8,56.1,29.99,SE,146,1.0,3.0,71,0.00,,,0.01,Wunderground v.1.15,2013-01-13 22:56:00,
2013-01-13 17:58:00,65.8,56.1,29.99,South,180,1.0,1.0,71,0.00,,,0.01,Wunderground v.1.15,2013-01-13 22:58:00,
2013-01-13 18:00:00,65.8,56.1,29.99,SW,215,1.0,1.0,71,0.00,,,0.01,Wunderground v.1.15,2013-01-13 23:00:00,
2013-01-13 18:06:00,65.6,56.3,29.99,SSE,156,1.0,3.0,72,0.00,,,0.01,Wunderground v.1.15,2013-01-13 23:06:00,
2013-01-13 18:08:00,65.6,56.3,29.99,SE,129,1.0,1.0,72,0.00,,,0.01,Wunderground v.1.15,2013-01-13 23:08:00,
2013-01-13 18:10:00,65.5,56.2,29.99,SE,129,1.0,1.0,72,0.00,,,0.01,Wunderground v.1.15,2013-01-13 23:10:00,
2013-01-13 18:12:00,65.4,56.1,29.99,ENE,66,0.0,1.0,72,0.00,,,0.01,Wunderground v.1.15,2013-01-13 23:12:00,
2013-01-13 18:16:00,65.2,55.9,29.99,ENE,65,0.0,1.0,72,0.00,,,0.01,Wunderground v.1.15,2013-01-13 23:16:00,
2013-01-13 18:18:00,65.1,56.2,29.99,ENE,65,0.0,0.0,73,0.00,,,0.01,Wunderground v.1.15,2013-01-13 23:18:00,
2013-01-13 18:20:00,64.9,56.0,29.98,ENE,66,0.0,0.0,73,0.00,,,0.01,Wunderground v.1.15,2013-01-13 23:20:00,
2013-01-13 18:22:00,64.8,55.9,29.98,ENE,67,0.0,0.0,73,0.00,,,0.01,Wunderground v.1.15,2013-01-13 23:22:00,
2013-01-13 18:24:00,64.8,56.3,29.98,NE,51,0.0,0.0,74,0.00,,,0.01,Wunderground v.1.15,2013-01-13 23:24:00,
2013-01-13 18:26:00,64.8,56.3,29.98,SE,133,0.0,1.0,74,0.00,,,0.01,Wunderground v.1.15,2013-01-13 23:26:00,
2013-01-13 18:32:00,64.8,56.3,29.98,East,98,1.0,2.0,74,0.00,,,0.01,Wunderground v.1.15,2013-01-13 23:32:00,
2013-01-13 18:36:00,64.9,56.4,29.98,SSW,211,1.0,3.0,74,0.00,,,0.01,Wunderground v.1.15,2013-01-13 23:36:00,
2013-01-13 18:38:00,64.8,56.3,29.98,SSW,193,1.0,1.0,74,0.00,,,0.01,Wunderground v.1.15,2013-01-13 23:38:00,
2013-01-13 18:40:00,64.8,56.3,29.98,ESE,120,1.0,1.0,74,0.00,,,0.01,Wunderground v.1.15,2013-01-13 23:40:00,
2013-01-13 18:44:00,64.7,56.2,29.98,West,261,0.0,4.0,74,0.00,,,0.01,Wunderground v.1.15,2013-01-13 23:44:00,
2013-01-13 18:46:00,64.6,56.1,29.98,South,188,0.0,4.0,74,0.00,,,0.01,Wunderground v.1.15,2013-01-13 23:46:00,
2013-01-13 18:48:00,64.5,56.0,29.98,South,188,0.0,0.0,74,0.00,,,0.01,Wunderground v.1.15,2013-01-13 23:48:00,
2013-01-13 18:50:00,64.4,56.3,29.98,South,189,0.0,0.0,75,0.00,,,0.01,Wunderground v.1.15,2013-01-13 23:50:00,
2013-01-13 18:52:00,64.4,56.3,29.98,SE,128,0.0,3.0,75,0.00,,,0.01,Wunderground v.1.15,2013-01-13 23:52:00,
2013-01-13 18:54:00,64.5,56.4,29.98,ESE,110,1.0,3.0,75,0.00,,,0.01,Wunderground v.1.15,2013-01-13 23:54:00,
2013-01-13 18:58:00,64.4,55.9,29.99,South,186,1.0,1.0,74,0.00,,,0.01,Wunderground v.1.15,2013-01-13 23:58:00,
2013-01-13 19:04:00,64.0,55.9,29.99,West,265,0.0,1.0,75,0.00,,,0.01,Wunderground v.1.15,2013-01-14 00:04:00,
2013-01-13 19:08:00,63.8,55.7,29.98,West,265,0.0,0.0,75,0.00,,,0.01,Wunderground v.1.15,2013-01-14 00:08:00,
2013-01-13 19:10:00,63.7,56.0,29.98,WSW,244,0.0,0.0,76,0.00,,,0.01,Wunderground v.1.15,2013-01-14 00:10:00,
2013-01-13 19:14:00,63.7,56.0,29.99,ESE,123,0.0,0.0,76,0.00,,,0.01,Wunderground v.1.15,2013-01-14 00:14:00,
2013-01-13 19:16:00,63.7,56.0,29.99,South,178,0.0,0.0,76,0.00,,,0.01,Wunderground v.1.15,2013-01-14 00:16:00,
2013-01-13 19:22:00,63.7,55.6,29.99,SSE,159,0.0,0.0,75,0.00,,,0.01,Wunderground v.1.15,2013-01-14 00:22:00,
2013-01-13 19:24:00,63.7,56.0,29.99,SSE,159,0.0,0.0,76,0.00,,,0.01,Wunderground v.1.15,2013-01-14 00:24:00,
2013-01-13 19:26:00,63.7,55.6,29.99,SSE,159,0.0,0.0,75,0.00,,,0.01,Wunderground v.1.15,2013-01-14 00:26:00,
2013-01-13 19:30:00,63.5,55.8,29.99,SSE,160,0.0,0.0,76,0.00,,,0.01,Wunderground v.1.15,2013-01-14 00:30:00,
2013-01-13 19:36:00,63.2,55.5,29.99,SW,221,0.0,0.0,76,0.00,,,0.01,Wunderground v.1.15,2013-01-14 00:36:00,
2013-01-13 19:38:00,63.1,55.4,29.99,SW,221,0.0,0.0,76,0.00,,,0.01,Wunderground v.1.15,2013-01-14 00:38:00,
2013-01-13 19:42:00,62.9,55.6,29.99,SW,221,0.0,0.0,77,0.00,,,0.01,Wunderground v.1.15,2013-01-14 00:42:00,
2013-01-13 19:44:00,62.8,55.1,29.99,SW,221,0.0,0.0,76,0.00,,,0.01,Wunderground v.1.15,2013-01-14 00:44:00,
2013-01-13 19:48:00,62.4,55.1,29.99,SW,221,0.0,0.0,77,0.00,,,0.01,Wunderground v.1.15,2013-01-14 00:48:00,
2013-01-13 19:50:00,62.2,54.9,29.99,SW,221,0.0,0.0,77,0.00,,,0.01,Wunderground v.1.15,2013-01-14 00:50:00,
2013-01-13 19:54:00,62.0,55.1,29.99,SW,221,0.0,0.0,78,0.00,,,0.01,Wunderground v.1.15,2013-01-14 00:54:00,
2013-01-13 19:58:00,61.8,54.9,29.99,SW,221,0.0,0.0,78,0.00,,,0.01,Wunderground v.1.15,2013-01-14 00:58:00,
2013-01-13 20:00:00,61.7,54.8,29.99,SW,221,0.0,0.0,78,0.00,,,0.01,Wunderground v.1.15,2013-01-14 01:00:00,
2013-01-13 20:02:00,61.6,54.7,29.99,SW,221,0.0,0.0,78,0.00,,,0.01,Wunderground v.1.15,2013-01-14 01:02:00,
2013-01-13 20:04:00,61.3,54.4,29.99,SW,221,0.0,0.0,78,0.00,,,0.01,Wunderground v.1.15,2013-01-14 01:04:00,
2013-01-13 20:08:00,61.2,54.6,29.99,South,185,0.0,0.0,79,0.00,,,0.01,Wunderground v.1.15,2013-01-14 01:08:00,
2013-01-13 20:12:00,61.2,54.6,29.99,South,185,0.0,0.0,79,0.00,,,0.01,Wunderground v.1.15,2013-01-14 01:12:00,
2013-01-13 20:14:00,61.2,54.6,29.99,South,185,0.0,0.0,79,0.00,,,0.01,Wunderground v.1.15,2013-01-14 01:14:00,
2013-01-13 20:16:00,61.1,54.5,29.99,South,185,0.0,0.0,79,0.00,,,0.01,Wunderground v.1.15,2013-01-14 01:16:00,
2013-01-13 20:22:00,60.5,54.0,29.99,South,186,0.0,1.0,79,0.00,,,0.01,Wunderground v.1.15,2013-01-14 01:22:00,
2013-01-13 20:24:00,60.5,54.0,29.99,South,186,0.0,1.0,79,0.00,,,0.01,Wunderground v.1.15,2013-01-14 01:24:00,
2013-01-13 20:26:00,60.5,54.3,29.99,South,186,0.0,1.0,80,0.00,,,0.01,Wunderground v.1.15,2013-01-14 01:26:00,
2013-01-13 20:30:00,60.5,54.6,29.99,South,184,0.0,0.0,81,0.00,,,0.01,Wunderground v.1.15,2013-01-14 01:30:00,
2013-01-13 20:32:00,60.4,54.5,29.99,South,184,0.0,0.0,81,0.00,,,0.01,Wunderground v.1.15,2013-01-14 01:32:00,
2013-01-13 20:36:00,60.1,54.2,29.98,South,169,0.0,0.0,81,0.00,,,0.01,Wunderground v.1.15,2013-01-14 01:36:00,
2013-01-13 20:38:00,59.9,54.1,29.98,South,169,0.0,0.0,81,0.00,,,0.01,Wunderground v.1.15,2013-01-14 01:38:00,
2013-01-13 20:42:00,59.8,53.6,29.98,South,169,0.0,0.0,80,0.00,,,0.01,Wunderground v.1.15,2013-01-14 01:42:00,
2013-01-13 20:44:00,59.6,53.4,29.98,South,169,0.0,0.0,80,0.00,,,0.01,Wunderground v.1.15,2013-01-14 01:44:00,
2013-01-13 20:50:00,59.2,53.7,29.98,South,169,0.0,0.0,82,0.00,,,0.01,Wunderground v.1.15,2013-01-14 01:50:00,
2013-01-13 20:52:00,59.2,53.7,29.98,South,169,0.0,0.0,82,0.00,,,0.01,Wunderground v.1.15,2013-01-14 01:52:00,
2013-01-13 20:56:00,59.1,53.6,29.98,South,169,0.0,0.0,82,0.00,,,0.01,Wunderground v.1.15,2013-01-14 01:56:00,
2013-01-13 21:00:00,59.0,53.8,29.98,South,169,0.0,0.0,83,0.00,,,0.01,Wunderground v.1.15,2013-01-14 02:00:00,
2013-01-13 21:06:00,58.9,53.4,29.98,South,169,0.0,0.0,82,0.00,,,0.01,Wunderground v.1.15,2013-01-14 02:06:00,
2013-01-13 21:10:00,58.8,53.3,29.98,NNW,327,0.0,0.0,82,0.00,,,0.01,Wunderground v.1.15,2013-01-14 02:10:00,
2013-01-13 21:12:00,58.8,53.6,29.98,NNW,327,0.0,0.0,83,0.00,,,0.01,Wunderground v.1.15,2013-01-14 02:12:00,
2013-01-13 21:14:00,58.8,53.6,29.98,NNW,327,0.0,0.0,83,0.00,,,0.01,Wunderground v.1.15,2013-01-14 02:14:00,
2013-01-13 21:16:00,58.8,53.6,29.98,NNW,327,0.0,0.0,83,0.00,,,0.01,Wunderground v.1.15,2013-01-14 02:16:00,
2013-01-13 21:20:00,59.2,54.0,29.98,West,259,0.0,2.0,83,0.00,,,0.01,Wunderground v.1.15,2013-01-14 02:20:00,
2013-01-13 21:22:00,59.5,54.3,29.98,West,263,0.0,2.0,83,0.00,,,0.01,Wunderground v.1.15,2013-01-14 02:22:00,
2013-01-13 21:26:00,59.9,54.1,29.98,WSW,255,1.0,3.0,81,0.00,,,0.01,Wunderground v.1.15,2013-01-14 02:26:00,
2013-01-13 21:28:00,60.0,54.2,29.98,NE,41,1.0,1.0,81,0.00,,,0.01,Wunderground v.1.15,2013-01-14 02:28:00,
2013-01-13 21:32:00,60.3,54.1,29.99,West,271,1.0,1.0,80,0.00,,,0.01,Wunderground v.1.15,2013-01-14 02:32:00,
2013-01-13 21:36:00,60.2,54.3,29.99,WNW,288,0.0,1.0,81,0.00,,,0.01,Wunderground v.1.15,2013-01-14 02:36:00,
2013-01-13 21:38:00,60.4,54.2,29.99,West,281,0.0,0.0,80,0.00,,,0.01,Wunderground v.1.15,2013-01-14 02:38:00,
2013-01-13 21:42:00,60.5,54.3,29.99,West,281,0.0,0.0,80,0.00,,,0.01,Wunderground v.1.15,2013-01-14 02:42:00,
2013-01-13 21:46:00,60.5,54.0,29.99,West,281,0.0,0.0,79,0.00,,,0.01,Wunderground v.1.15,2013-01-14 02:46:00,
2013-01-13 21:48:00,60.5,54.0,29.99,West,277,0.0,0.0,79,0.00,,,0.01,Wunderground v.1.15,2013-01-14 02:48:00,
2013-01-13 21:50:00,60.6,54.0,29.99,West,277,0.0,0.0,79,0.00,,,0.01,Wunderground v.1.15,2013-01-14 02:50:00,
2013-01-13 21:54:00,60.7,54.1,29.99,West,277,0.0,0.0,79,0.00,,,0.01,Wunderground v.1.15,2013-01-14 02:54:00,
2013-01-13 21:56:00,60.7,54.1,29.99,West,277,0.0,0.0,79,0.00,,,0.01,Wunderground v.1.15,2013-01-14 02:56:00,
2013-01-13 21:58:00,60.8,53.9,29.99,West,271,0.0,0.0,78,0.00,,,0.01,Wunderground v.1.15,2013-01-14 02:58:00,
2013-01-13 22:00:00,61.0,54.1,29.99,West,271,0.0,0.0,78,0.00,,,0.01,Wunderground v.1.15,2013-01-14 03:00:00,
2013-01-13 22:04:00,61.0,54.1,30.00,West,272,0.0,0.0,78,0.00,,,0.01,Wunderground v.1.15,2013-01-14 03:04:00,
2013-01-13 22:06:00,60.9,54.0,30.00,West,272,0.0,0.0,78,0.00,,,0.01,Wunderground v.1.15,2013-01-14 03:06:00,
2013-01-13 22:08:00,60.8,53.9,30.00,West,272,0.0,0.0,78,0.00,,,0.01,Wunderground v.1.15,2013-01-14 03:08:00,
2013-01-13 22:12:00,60.5,54.0,30.00,West,273,0.0,0.0,79,0.00,,,0.01,Wunderground v.1.15,2013-01-14 03:12:00,
2013-01-13 22:14:00,60.5,54.0,30.00,West,273,0.0,0.0,79,0.00,,,0.01,Wunderground v.1.15,2013-01-14 03:14:00,
2013-01-13 22:20:00,60.4,54.9,30.01,West,273,0.0,0.0,82,0.00,,,0.01,Wunderground v.1.15,2013-01-14 03:20:00,
2013-01-13 22:22:00,60.3,54.1,30.01,West,273,0.0,0.0,80,0.00,,,0.01,Wunderground v.1.15,2013-01-14 03:22:00,
2013-01-13 22:24:00,60.2,54.0,30.01,West,273,0.0,0.0,80,0.00,,,0.01,Wunderground v.1.15,2013-01-14 03:24:00,
2013-01-13 22:26:00,60.2,54.0,30.01,West,273,0.0,0.0,80,0.00,,,0.01,Wunderground v.1.15,2013-01-14 03:26:00,
2013-01-13 22:32:00,60.2,54.0,30.01,West,273,0.0,0.0,80,0.00,,,0.01,Wunderground v.1.15,2013-01-14 03:32:00,
2013-01-13 22:34:00,60.2,54.0,30.01,West,273,0.0,0.0,80,0.00,,,0.01,Wunderground v.1.15,2013-01-14 03:34:00,
2013-01-13 22:36:00,60.3,54.1,30.01,West,273,0.0,0.0,80,0.00,,,0.01,Wunderground v.1.15,2013-01-14 03:36:00,
2013-01-13 22:40:00,60.0,53.8,30.02,West,273,0.0,0.0,80,0.00,,,0.01,Wunderground v.1.15,2013-01-14 03:40:00,
2013-01-13 22:42:00,59.9,53.7,30.01,West,273,0.0,0.0,80,0.00,,,0.01,Wunderground v.1.15,2013-01-14 03:42:00,
2013-01-13 22:44:00,59.8,54.0,30.01,West,273,0.0,0.0,81,0.00,,,0.01,Wunderground v.1.15,2013-01-14 03:44:00,
2013-01-13 22:46:00,59.8,54.0,30.02,West,273,0.0,0.0,81,0.00,,,0.01,Wunderground v.1.15,2013-01-14 03:46:00,
2013-01-13 22:48:00,59.9,53.7,30.01,West,273,0.0,0.0,80,0.00,,,0.01,Wunderground v.1.15,2013-01-14 03:48:00,
2013-01-13 22:52:00,60.0,53.8,30.02,West,273,0.0,0.0,80,0.00,,,0.01,Wunderground v.1.15,2013-01-14 03:52:00,
2013-01-13 22:54:00,60.0,53.8,30.02,West,273,0.0,0.0,80,0.00,,,0.01,Wunderground v.1.15,2013-01-14 03:54:00,
2013-01-13 22:56:00,59.9,53.7,30.02,West,273,0.0,0.0,80,0.00,,,0.01,Wunderground v.1.15,2013-01-14 03:56:00,
2013-01-13 22:58:00,59.7,53.9,30.02,West,273,0.0,0.0,81,0.00,,,0.01,Wunderground v.1.15,2013-01-14 03:58:00,
2013-01-13 23:02:00,59.6,53.8,30.03,West,273,0.0,0.0,81,0.00,,,0.01,Wunderground v.1.15,2013-01-14 04:02:00,
2013-01-13 23:04:00,59.6,53.8,30.03,West,273,0.0,0.0,81,0.00,,,0.01,Wunderground v.1.15,2013-01-14 04:04:00,
2013-01-13 23:06:00,59.6,53.8,30.03,West,273,0.0,0.0,81,0.00,,,0.01,Wunderground v.1.15,2013-01-14 04:06:00,
2013-01-13 23:10:00,59.3,53.8,30.03,West,273,0.0,0.0,82,0.00,,,0.01,Wunderground v.1.15,2013-01-14 04:10:00,
2013-01-13 23:12:00,59.3,53.8,30.02,West,273,0.0,0.0,82,0.00,,,0.01,Wunderground v.1.15,2013-01-14 04:12:00,
2013-01-13 23:16:00,59.4,53.9,30.03,West,273,0.0,0.0,82,0.00,,,0.01,Wunderground v.1.15,2013-01-14 04:16:00,
2013-01-13 23:18:00,59.5,54.0,30.03,West,273,0.0,0.0,82,0.00,,,0.01,Wunderground v.1.15,2013-01-14 04:18:00,
2013-01-13 23:20:00,59.4,53.9,30.03,West,273,0.0,0.0,82,0.00,,,0.01,Wunderground v.1.15,2013-01-14 04:20:00,
2013-01-13 23:24:00,59.3,53.8,30.03,West,273,0.0,0.0,82,0.00,,,0.01,Wunderground v.1.15,2013-01-14 04:24:00,
2013-01-13 23:26:00,59.2,53.7,30.03,West,273,0.0,0.0,82,0.00,,,0.01,Wunderground v.1.15,2013-01-14 04:26:00,
2013-01-13 23:30:00,59.0,53.8,30.03,West,273,0.0,0.0,83,0.00,,,0.01,Wunderground v.1.15,2013-01-14 04:30:00,
2013-01-13 23:32:00,59.0,53.8,30.04,West,273,0.0,0.0,83,0.00,,,0.01,Wunderground v.1.15,2013-01-14 04:32:00,
2013-01-13 23:36:00,58.8,53.6,30.04,West,273,0.0,0.0,83,0.00,,,0.01,Wunderground v.1.15,2013-01-14 04:36:00,
2013-01-13 23:40:00,58.6,53.8,30.04,West,273,0.0,0.0,84,0.00,,,0.01,Wunderground v.1.15,2013-01-14 04:40:00,
2013-01-13 23:46:00,58.2,53.7,30.05,West,273,0.0,0.0,85,0.00,,,0.02,Wunderground v.1.15,2013-01-14 04:46:00,
2013-01-13 23:48:00,58.1,53.6,30.05,West,273,0.0,0.0,85,0.00,,,0.02,Wunderground v.1.15,2013-01-14 04:48:00,
2013-01-13 23:50:00,58.0,53.8,30.04,West,273,0.0,0.0,86,0.11,,,0.03,Wunderground v.1.15,2013-01-14 04:50:00,
2013-01-13 23:54:00,58.0,54.2,30.04,West,273,0.0,0.0,87,0.11,,,0.03,Wunderground v.1.15,2013-01-14 04:54:00,
2013-01-13 23:58:00,58.1,54.2,30.04,West,273,0.0,0.0,87,0.07,,,0.03,Wunderground v.1.15,2013-01-14 04:58:00,